VILANOVA DE SAU





Hora UTC 07:00
Temperatura 3.4 ºC
Humitat 98.5 %
Pressió 1014.3 hPa
Pluja 0.0 mm
Velocitat vent 0.0 km/h
Direcció vent NNE
Radiació solar 2.3 W/m²

Dades diàries 2022-12-01



Hora UTC (hivern +1h; estiu +2h)
Temperatura (ºC) Humitat (%) Pressió (hPa) Velocitat vent (km/h) Precipitació (mm) Radiació solar (W/m²)
Hora UTC Aire Humitat Pressió Vel. Dir. Vel. Max Dir. Intent. màx 5 min. Rad. Sol.
00:10 4.6 94.1 1014.5 0.0 NNE 0.0 NNW 0.0 0.0
00:20 4.5 94.4 1014.5 0.0 NNE 0.0 W 0.0 0.0
00:30 4.4 94.8 1014.4 0.0 NNE 0.0 W 0.0 0.0
00:40 4.6 95.0 1014.4 0.0 NNE 0.0 W 0.0 0.0
00:50 4.7 94.4 1014.4 0.0 NW 3.4 NW 0.0 0.0
01:00 4.7 94.0 1014.4 0.0 NNE 0.0 W 0.0 0.0
01:10 4.6 94.1 1014.3 0.0 NNE 0.0 W 0.0 0.0
01:20 4.6 94.3 1014.3 0.0 NNE 0.0 W 0.0 0.0
01:30 4.7 94.5 1014.3 0.0 NNE 0.0 W 0.0 0.0
01:40 4.9 94.3 1014.3 0.0 NNE 0.0 W 0.0 0.0
01:50 4.8 94.1 1014.3 0.1 SW 3.4 SW 0.0 0.0
02:00 4.5 93.9 1014.3 0.0 NNE 0.0 SW 0.0 0.0
02:10 4.1 93.9 1014.2 0.0 SW 3.4 SW 0.0 0.0
02:20 3.6 94.5 1014.2 0.0 NNE 0.0 SW 0.0 0.0
02:30 3.3 95.2 1014.1 0.0 NNE 0.0 SW 0.0 0.0
02:40 3.0 95.8 1014.2 0.0 NNE 0.0 SW 0.0 0.0
02:50 2.8 96.3 1014.1 0.0 NNE 0.0 SW 0.0 0.0
03:00 2.9 96.8 1014.1 0.0 NNE 0.0 SW 0.0 0.0
03:10 3.0 97.1 1014.1 0.0 NNE 0.0 SW 0.0 0.0
03:20 3.1 97.3 1014.1 0.0 NNE 0.0 SW 0.0 0.0
03:30 3.0 97.3 1014.0 0.0 NNE 0.0 SW 0.0 0.0
03:40 2.8 97.4 1014.0 0.0 NNE 0.0 SW 0.0 0.0
03:50 3.0 97.7 1014.0 0.0 NNE 0.0 SW 0.0 0.0
04:00 3.1 97.7 1014.0 0.0 NNE 0.0 SW 0.0 0.0
04:10 3.2 97.8 1013.9 0.0 NNE 0.0 SW 0.0 0.0
04:20 3.4 97.9 1013.9 0.0 NNE 0.0 SW 0.0 0.0
04:30 3.5 98.0 1013.9 0.0 NNE 0.0 SW 0.0 0.0
04:40 3.5 98.0 1013.9 0.1 NW 3.4 NW 0.0 0.0
04:50 3.3 97.7 1013.8 0.0 NNE 0.0 WNW 0.0 0.0
05:00 3.0 97.7 1013.8 0.0 NNE 0.0 WNW 0.0 0.0
05:10 2.8 97.9 1013.8 0.0 NNE 0.0 W 0.0 0.0
05:20 2.7 98.0 1013.8 0.0 NNE 0.0 W 0.0 0.0
05:30 2.6 98.1 1013.8 0.0 NNE 0.0 W 0.0 0.0
05:40 2.5 98.1 1013.9 0.0 NNE 0.0 W 0.0 0.0
05:50 2.6 98.3 1014.0 0.0 NNE 0.0 W 0.0 0.0
06:00 2.7 98.4 1014.0 0.0 NNE 0.0 W 0.0 0.0
06:10 2.9 98.4 1014.1 0.0 NNE 0.0 W 0.0 0.0
06:20 2.9 98.4 1014.1 0.0 NNE 0.0 W 0.0 0.0
06:30 3.1 98.5 1014.1 0.0 NNE 0.0 W 0.0 0.0
06:40 3.3 98.5 1014.2 0.0 NNE 0.0 WNW 0.0 0.0
06:50 3.4 98.5 1014.2 0.0 NNE 0.0 WNW 0.0 0.4
07:00 3.4 98.5 1014.3 0.0 NNE 0.0 NNE 0.0 2.3
Màxima 4.9 98.5 1014.5 0.1 NW 3.4 NW 0.0 2.3
Mínima 2.5 93.9 1013.8
Total 0.0